Location: Dąbrowa Miętka
(51.3714°N, 18.6370°E)
Time: 06:17:14
(UTC+01:00)

ISS - Pass Details

Date: 29 January 2019
Orbit: 403 x 411 km, 51.6° (Epoch: 23 February)

Event Time Altitude Azimuth Distance (km) Brightness Sun altitude
Rises 19:51:08 0° 278° (W) 2,341 1.2 -31.3°
Reaches altitude 10° 19:53:14 10° 278° (W) 1,481 -0.1 -31.6°
Enters shadow 19:53:23 11° 278° (W) 1,418 -0.2 -31.7°
